Waarnemingen

Advertentie
Mijn weer
Blomskog, Zweden (2408): temperatuur & dauwpunt: 12.01.2020 00:00:00 - 18.01.2020 00:00:00 (CET)Blomskog, Zweden (2408): windsnelheid & windstoten: 12.01.2020 00:00:00 - 18.01.2020 00:00:00 (CET)Blomskog, Zweden (2408): windrichting: 12.01.2020 00:00:00 - 18.01.2020 00:00:00 (CET)Blomskog, Zweden (2408): luchtdruk: 12.01.2020 00:00:00 - 18.01.2020 00:00:00 (CET)Blomskog, Zweden (2408): zicht: 12.01.2020 00:00:00 - 18.01.2020 00:00:00 (CET)Blomskog, Zweden (2408): neerslag: 12.01.2020 00:00:00 - 18.01.2020 00:00:00 (CET)
Datum & Tijd tt [°C] td [°C] ff [km/u] ff [kn] fx [km/u] fx [kn] dd ppp [hPa] vv [km] rr [mm]
18.01.2020 00:00:00 - - - - - - - - - -
17.01.2020 23:00:00 5,1 5,0 3 2 11 6 Z 1006,3 7 0,0
17.01.2020 22:00:00 5,1 5,0 3 2 12 6 Z 1006,9 3,4 0,0
17.01.2020 21:00:00 5,1 5,0 2 1 14 7 Z 1007,1 6 0,1
17.01.2020 20:00:00 5,2 5,1 6 3 15 8 ZZO 1007,9 6 0,5
17.01.2020 19:00:00 5,4 5,3 6 3 18 10 ZZO 1008,4 9 0,0
17.01.2020 18:00:00 5,3 5,2 4 2 15 8 ZO 1008,5 9 0,1
17.01.2020 17:00:00 5,4 5,3 5 3 18 10 ZZO 1008,9 8 0,1
17.01.2020 16:00:00 5,5 5,3 7 4 16 9 ZZO 1009,4 8 0,0
17.01.2020 15:00:00 5,9 5,6 6 3 19 10 ZZO 1010,2 13 0,0
17.01.2020 14:00:00 5,9 5,6 6 3 17 9 Z 1010,6 13 0,0
17.01.2020 13:00:00 6,1 5,5 6 4 21 11 Z 1011,1 14 0,0
17.01.2020 12:00:00 6,3 5,4 7 4 25 14 Z 1011,6 17 0,0
17.01.2020 11:00:00 6,2 5,3 6 3 22 12 Z 1011,9 16 0,0
17.01.2020 10:00:00 6,0 5,2 7 4 23 12 Z 1012,2 19 0,0
17.01.2020 09:00:00 5,3 4,7 7 4 21 11 ZZO 1012,4 13 0,0
17.01.2020 08:00:00 5,1 4,2 8 4 20 11 ZZO 1012,4 29 0,0
17.01.2020 07:00:00 4,8 4,4 9 5 24 13 ZZO 1012,8 30 0,0
17.01.2020 06:00:00 4,6 4,2 9 5 26 14 ZZO 1013,6 14 0,0
17.01.2020 05:00:00 4,8 3,1 6 4 23 12 ZZO 1014,0 25 0,0
17.01.2020 04:00:00 4,7 2,8 5 3 22 12 Z 1015,1 30 0,0
17.01.2020 03:00:00 4,5 2,5 5 3 23 12 ZZW 1016,2 28 0,0
17.01.2020 02:00:00 5,2 3,5 6 4 18 10 ZZW 1017,1 20 0,0
17.01.2020 01:00:00 5,4 4,5 5 3 18 10 Z 1017,4 16 0,0
17.01.2020 00:00:00 5,6 3,8 8 5 21 11 ZW 1017,7 14 0,0
16.01.2020 23:00:00 5,4 4,7 5 3 21 11 ZW 1018,2 13 0,0
16.01.2020 22:00:00 5,6 3,5 8 4 20 11 WZW 1018,3 16 0,0
16.01.2020 21:00:00 4,9 2,9 5 3 21 12 WZW 1018,2 15 0,0
16.01.2020 20:00:00 5,7 3,2 9 5 25 13 WZW 1018,2 16 0,0
16.01.2020 19:00:00 5,8 3,3 13 7 35 19 WZW 1017,6 14 0,0
16.01.2020 18:00:00 5,8 2,8 14 8 35 19 WZW 1016,7 15 0,0
16.01.2020 17:00:00 5,7 3,2 11 6 31 17 WZW 1015,9 14 0,0
16.01.2020 16:00:00 5,8 2,8 14 7 30 16 WZW 1015,1 14 0,0
16.01.2020 15:00:00 5,9 2,7 12 6 25 14 WZW 1014,6 14 0,0
16.01.2020 14:00:00 6,5 3,3 12 7 38 21 WZW 1013,7 15 0,0
16.01.2020 13:00:00 6,8 3,4 16 9 37 20 WZW 1012,6 15 0,0
16.01.2020 12:00:00 6,9 3,5 16 9 43 23 W 1011,4 15 0,0
16.01.2020 11:00:00 - - - - - - - - - -
16.01.2020 10:00:00 - - - - - - - - - -
16.01.2020 09:00:00 6,1 3,8 14 8 41 22 WZW 1007,4 14 0,0
16.01.2020 08:00:00 6,3 3,8 13 7 41 22 WZW 1006,1 15 0,0
16.01.2020 07:00:00 6,5 3,5 17 9 47 26 WZW 1005,3 15 0,0
16.01.2020 06:00:00 6,6 3,4 18 10 42 23 WZW 1004,0 13 0,0
16.01.2020 05:00:00 6,5 3,1 16 9 46 25 WZW 1003,3 13 0,0
16.01.2020 04:00:00 6,6 3,0 17 9 55 30 WZW 1003,0 13 0,0
16.01.2020 03:00:00 6,5 2,9 16 8 43 23 WZW 1002,6 12 0,0
16.01.2020 02:00:00 6,4 2,7 20 11 52 28 WZW 1002,0 13 0,0
16.01.2020 01:00:00 6,1 2,6 17 9 49 26 WZW 1001,4 15 0,0
16.01.2020 00:00:00 5,9 2,9 14 7 38 20 WZW 1000,9 15 0,0
15.01.2020 23:00:00 5,9 2,5 15 8 38 20 WZW 1000,4 19 0,0
15.01.2020 22:00:00 5,7 2,5 14 8 32 17 WZW 999,9 20 0,0
15.01.2020 21:00:00 5,9 2,7 11 6 32 17 WZW 999,1 23 0,0
15.01.2020 20:00:00 5,8 3,1 10 5 29 16 WZW 998,6 19 0,0
15.01.2020 19:00:00 5,7 2,9 10 5 29 16 WZW 998,5 18 0,0
15.01.2020 18:00:00 5,7 2,9 11 6 38 21 WZW 998,1 18 0,0
15.01.2020 17:00:00 5,4 2,7 13 7 36 20 WZW 997,6 21 0,0
15.01.2020 16:00:00 5,6 2,7 12 7 32 17 ZW 996,9 21 0,0
15.01.2020 15:00:00 5,9 2,5 13 7 38 21 WZW 996,3 24 0,0
15.01.2020 14:00:00 5,8 2,6 14 8 33 18 WZW 996,2 21 0,0
15.01.2020 13:00:00 6,0 2,1 16 9 34 18 WZW 995,4 36 0,0
15.01.2020 12:00:00 6,1 2,6 15 8 39 21 WZW 994,6 24 0,0
15.01.2020 11:00:00 6,2 3,0 11 6 33 18 WZW 993,7 22 0,0
15.01.2020 10:00:00 6,2 2,7 16 8 41 22 WZW 992,5 24 0,0
15.01.2020 09:00:00 6,3 3,3 17 9 44 24 WZW 991,2 26 0,0
15.01.2020 08:00:00 6,5 3,8 17 9 48 26 WZW 989,9 29 0,0
15.01.2020 07:00:00 6,6 4,6 18 10 52 28 WZW 988,3 34 0,0
15.01.2020 06:00:00 7,2 5,2 20 11 50 27 WZW 987,0 18 0,0
15.01.2020 05:00:00 7,9 6,4 18 10 51 28 WZW 985,3 11 0,0
15.01.2020 04:00:00 8,7 7,9 8 4 56 30 WZW 984,1 11 0,1
15.01.2020 03:00:00 8,8 8,7 13 7 63 34 ZW 983,7 4,7 1,5
15.01.2020 02:00:00 4,6 4,5 12 7 32 17 ZZO 984,9 6 1,8
15.01.2020 01:00:00 3,4 3,3 10 5 27 15 OZO 986,5 7 3,1
15.01.2020 00:00:00 3,9 3,8 4 2 18 10 ZZO 989,2 6 1,9
14.01.2020 23:00:00 4,1 4,0 0 0 17 9 N 991,6 9 0,8
14.01.2020 22:00:00 4,1 4,0 0 0 5 3 N 993,3 8 0,3
14.01.2020 21:00:00 4,4 4,3 0 0 0 0 N 994,0 10 0,0
14.01.2020 20:00:00 4,0 3,9 0 0 15 8 N 994,2 9 0,0
14.01.2020 19:00:00 4,7 3,7 0 0 30 16 N 994,7 10 0,0
14.01.2020 18:00:00 4,6 4,2 0 0 26 14 N 994,3 9 0,0
14.01.2020 17:00:00 4,4 4,3 5 3 29 16 ZW 994,0 9 0,0
14.01.2020 16:00:00 4,2 4,0 0 0 23 12 N 993,4 11 0,0
14.01.2020 15:00:00 4,4 4,1 2 1 50 27 WZW 992,6 17 0,9
14.01.2020 14:00:00 4,9 4,8 0 0 35 19 N 992,1 19 0,6
14.01.2020 13:00:00 5,5 5,4 0 0 27 15 N 991,4 14 0,2
14.01.2020 12:00:00 5,5 5,4 0 0 19 10 N 991,1 15 0,1
14.01.2020 11:00:00 5,2 5,1 0 0 21 11 N 991,1 15 0,7
14.01.2020 10:00:00 4,9 4,7 0 0 31 17 N 991,0 10 1,2
14.01.2020 09:00:00 3,6 3,5 5 3 30 16 ZZO 991,0 8 1,4
14.01.2020 08:00:00 2,3 2,2 15 8 34 18 ZZO 992,0 9 2,8
14.01.2020 07:00:00 3,1 3,0 10 6 36 19 ZZO 993,1 6 1,3
14.01.2020 06:00:00 3,2 3,1 14 7 37 20 ZZO 993,9 12 0,3
14.01.2020 05:00:00 3,6 2,1 5 3 26 14 ZZO 996,0 25 0,0
14.01.2020 04:00:00 3,5 2,7 4 2 30 16 ZZO 998,4 28 0,0
14.01.2020 03:00:00 3,4 3,3 0 0 27 15 N 1000,5 30 0,0
14.01.2020 02:00:00 3,2 3,1 0 0 15 8 N 1001,9 11 0,0
14.01.2020 01:00:00 3,2 3,1 0 0 16 9 N 1003,0 27 0,1
14.01.2020 00:00:00 3,2 3,1 0 0 11 6 N 1004,6 17 0,1
13.01.2020 23:00:00 3,1 3,0 3 2 19 11 ZZO 1005,2 15 0,2
13.01.2020 22:00:00 2,7 2,5 0 0 12 6 N 1005,8 18 0,1
13.01.2020 21:00:00 2,7 2,6 0 0 12 6 N 1006,6 14 0,0
13.01.2020 20:00:00 2,5 2,4 0 0 4 2 N 1007,2 16 0,0
13.01.2020 19:00:00 3,2 3,1 0 0 14 8 N 1007,7 22 0,1
13.01.2020 18:00:00 3,3 3,2 6 4 21 11 ZW 1008,0 8 0,1
13.01.2020 17:00:00 3,2 2,6 0 0 16 8 N 1007,6 22 0,0
13.01.2020 16:00:00 3,4 2,2 0 0 8 4 N 1007,6 27 0,0
13.01.2020 15:00:00 3,9 1,4 2 1 26 14 WZW 1007,7 38 0,0
13.01.2020 14:00:00 4,3 1,7 0 0 23 12 N 1007,9 35 0,0
13.01.2020 13:00:00 4,1 1,5 4 2 27 15 WZW 1008,1 34 0,0
13.01.2020 12:00:00 3,6 2,0 0 0 11 6 N 1008,2 32 0,0
13.01.2020 11:00:00 2,6 1,6 0 0 6 3 N 1008,6 30 0,0
13.01.2020 10:00:00 2,1 1,4 0 0 14 8 N 1008,5 30 0,0
13.01.2020 09:00:00 1,9 1,0 0 0 13 7 N 1008,1 35 0,0
13.01.2020 08:00:00 1,6 0,7 0 0 10 5 N 1007,8 42 0,0
13.01.2020 07:00:00 1,3 1,2 2 1 15 8 WZW 1007,5 33 0,0
13.01.2020 06:00:00 1,3 1,2 0 0 19 10 N 1007,2 39 0,0
13.01.2020 05:00:00 1,8 1,7 8 5 19 10 WZW 1007,0 25 0,0
13.01.2020 04:00:00 1,2 1,1 0 0 3 2 N 1006,7 15 0,0
13.01.2020 03:00:00 1,8 1,7 0 0 10 6 N 1006,4 18 0,0
13.01.2020 02:00:00 2,6 1,3 0 0 16 9 N 1006,3 23 0,0
13.01.2020 01:00:00 2,0 0,2 0 0 12 7 N 1006,3 28 0,0
13.01.2020 00:00:00 1,3 1,2 0 0 13 7 N 1006,1 18 0,0
12.01.2020 23:00:00 -1,6 -1,7 0 0 3 1 N 1006,2 17 0,0
12.01.2020 22:00:00 -2,3 -2,3 0 0 6 4 N 1006,0 3,7 0,0
12.01.2020 21:00:00 -0,8 -0,9 0 0 7 4 N 1005,6 14 0,0
12.01.2020 20:00:00 1,8 0,5 4 2 15 8 WZW 1004,9 20 0,0
12.01.2020 19:00:00 1,2 0,5 3 2 16 8 ZW 1005,3 23 0,0
12.01.2020 18:00:00 2,3 0,7 6 3 19 10 WZW 1005,2 27 0,0
12.01.2020 17:00:00 2,5 0,2 6 4 14 8 WZW 1004,6 42 0,0
12.01.2020 16:00:00 2,9 -0,1 5 3 14 8 WZW 1004,3 50 0,0
12.01.2020 15:00:00 3,6 -0,2 5 3 18 10 ZW 1004,4 50 0,0
12.01.2020 14:00:00 4,5 0,1 9 5 23 12 WZW 1004,0 50 0,0
12.01.2020 13:00:00 4,9 0,3 10 5 25 14 W 1003,7 50 0,0
12.01.2020 12:00:00 4,9 1,4 9 5 26 14 W 1003,3 50 0,0
12.01.2020 11:00:00 5,1 2,5 0 0 20 11 N 1002,8 50 0,0
12.01.2020 10:00:00 4,9 4,2 0 0 16 8 N 1002,0 43 0,0
12.01.2020 09:00:00 5,1 5,0 0 0 17 9 N 1001,2 22 0,0
12.01.2020 08:00:00 5,9 5,6 0 0 25 13 N 1000,7 31 0,0
12.01.2020 07:00:00 6,4 6,3 0 0 14 8 N 1000,5 42 0,0
12.01.2020 06:00:00 6,5 6,4 0 0 12 7 N 1000,3 26 0,0
12.01.2020 05:00:00 6,7 6,6 0 0 10 5 N 1000,2 19 0,0
12.01.2020 04:00:00 7,0 6,7 0 0 16 9 N 1000,3 15 0,0
12.01.2020 03:00:00 7,1 7,0 0 0 15 8 N 1000,0 11 0,1
12.01.2020 02:00:00 7,3 7,2 0 0 29 16 N 999,9 10 0,1
12.01.2020 01:00:00 7,3 7,2 0 0 36 20 N 999,4 10 0,4
12.01.2020 00:00:00 7,2 7,1 7 4 40 21 WZW 999,7 10 2,2

tt = temperatuur
td = dauwpunt
ff = windsnelheid
fx = windstoten
dd = windrichting
ppp = luchtdruk
vv = zicht
rr = neerslag

Weerstations in de omgeving